This is the latest recevied weather packets stored in our database for station/object OE-11049. If no packets are shown the sender has not sent any weather packets the latest 10 day(s).
| Time | Temp. | Humidity | Pressure | Rain* | Wind** | Luminosity | Snow |
|---|---|---|---|---|---|---|---|
| 1787825490 | 26.11° C | 58% | 1013.3 hPa | 0 mm | - | 468 W/m² | - |
| 1787825117 | 25.56° C | 56% | 1013.4 hPa | 0 mm | - | 462 W/m² | - |
| 1787824517 | 25.56° C | 56% | 1013.3 hPa | 0 mm | - | 532 W/m² | - |
| 1787823690 | 25.56° C | 57% | 1013.2 hPa | 0 mm | - | 526 W/m² | - |
| 1787823317 | 25° C | 59% | 1013.3 hPa | 0 mm | - | 514 W/m² | - |
| 1787822716 | 25° C | 58% | 1013.3 hPa | 0 mm | - | 549 W/m² | - |
| 1787821890 | 24.44° C | 61% | 1013.6 hPa | 0 mm | - | 631 W/m² | - |
| 1787821516 | 23.89° C | 60% | 1013.6 hPa | 0 mm | - | 608 W/m² | - |
| 1787820917 | 24.44° C | 64% | 1013.6 hPa | 0 mm | - | 590 W/m² | - |
| 1787820090 | 23.89° C | 63% | 1013.9 hPa | 0 mm | - | 561 W/m² | - |
| 1787819717 | 22.78° C | 65% | 1014.1 hPa | 0 mm | - | 532 W/m² | - |
| 1787819117 | 22.22° C | 67% | 1014.1 hPa | 0 mm | - | 514 W/m² | - |
| 1787818290 | 21.67° C | 67% | 1014.1 hPa | 0 mm | - | 509 W/m² | - |
| 1787817916 | 21.11° C | 69% | 1014.2 hPa | 0 mm | - | 473 W/m² | - |
| 1787817316 | 21.11° C | 73% | 1014.3 hPa | 0 mm | - | 438 W/m² | - |
| 1787816490 | 20.56° C | 72% | 1014.3 hPa | 0 mm | - | 421 W/m² | - |
| 1787816116 | 20° C | 73% | 1014.4 hPa | 0 mm | - | 392 W/m² | - |
| 1787815514 | 19.44° C | 77% | 1014.5 hPa | 0 mm | - | 362 W/m² | - |
| 1787814690 | 18.89° C | 77% | 1014.6 hPa | 0 mm | - | 298 W/m² | - |
| 1787813717 | 18.33° C | 78% | 1014.9 hPa | 0 mm | - | 257 W/m² | - |
| 1787812890 | 17.78° C | 81% | 1015 hPa | 0 mm | - | 257 W/m² | - |
| 1787812517 | 17.78° C | 81% | 1015.2 hPa | 0 mm | - | 158 W/m² | - |
| 1787811917 | 17.78° C | 82% | 1015.2 hPa | 0 mm | - | 146 W/m² | - |
| 1787811329 | 17.22° C | 86% | 1015.2 hPa | 0 mm | - | 129 W/m² | - |
| 1787810717 | 17.22° C | 84% | 1015.3 hPa | 0 mm | - | 123 W/m² | - |
* Rain latest hour (hover to see other rain measurements)
** Current wind speed in m/s (hover to see current wind gust speed)